Location: Unspecified
(0.0000°N, 0.0000°E)
Time: 18:18:20
(UTC+00:00)

Hubble Space Telescope - Pass Details

Date: 07 May 2021
Orbit: 535 x 539 km, 28.5° (Epoch: 14 May)

Event Time Altitude Azimuth Distance (km) Brightness Sun altitude
Rises 19:19:28 0° 297° (WNW) 2,670 5.9 -19.8°
Reaches altitude 10° 19:21:44 10° 294° (WNW) 1,781 4.6 -20.3°
Maximum altitude 19:25:50 70° 211° (SSW) 568 0.8 -21.3°
Enters shadow 19:26:19 62° 163° (SSE) 602 0.7 -21.4°
